Powrót do katalogu

STARLINK-4309

AktywnyŁącznośćSSO
NORAD 53066·PAYLOAD·🇺🇸 United States

Wystrzelony Jul 11, 2022 z Vandenberg Space Force Base

Loading…

Następne Przeloty (najbliższe 24 godziny)

TLE

ŚwieżeSource: CelesTrak SupGP

Epoka: Sep 15, 2026, 02:44 UTC

1 53066C 22077Z   26258.11437500 -.00057708  00000+0 -17915-2 0  2583
2 53066  97.2851  72.9578 0001613  93.6265 258.3057 15.33466546    18

Śledź STARLINK-4309 w czasie rzeczywistym z AllMySat

Download on the App Store